logo tempoitalia

Diretta Meteo Kansas City Downtown, Stati Uniti (USA)lunedì 31 agosto ore 00:54

Mappa
Sereno 31 °C Sereno 24 Ore: T.min 27 T.max 38
Ponente Sud Km/h 16.7 Punto di rugiada: 16 °C Umidità: 40% Visibilità: 10 Km
Il sole sorge alle: 06:46 Il sole tramonta alle: 19:50
31 Agosto 2026 00:54 tempo osservato: Sereno Sereno 31 40 1011 vento: Nord S 16.7
30 Agosto 2026 23:54 tempo osservato: Sereno Sereno 32 38 1011 vento: Nord S 20.3
30 Agosto 2026 22:54 tempo osservato: Sereno Sereno 32 38 1011 vento: Nord S 22.2
30 Agosto 2026 21:54 tempo osservato: Sereno Sereno 33 36 1011 vento: Nord S 18.5
30 Agosto 2026 20:54 tempo osservato: Sereno Sereno 34 34 1010 vento: Nord S 22.2
30 Agosto 2026 19:54 tempo osservato: Sereno Sereno 35 34 1010 vento: Nord S 16.7
30 Agosto 2026 18:54 tempo osservato: Sereno Sereno 36 32 1010 vento: Nord S 25.9
30 Agosto 2026 17:54 tempo osservato: Sereno Sereno 37 30 1009 vento: Nord S/SO 25.9
30 Agosto 2026 16:54 tempo osservato: Sereno Sereno 38 31 1010 vento: Nord S/SO 25.9
30 Agosto 2026 15:54 tempo osservato: Sereno Sereno 37 32 1010 vento: Nord S 27.8
30 Agosto 2026 14:54 tempo osservato: Sereno Sereno 37 35 1011 vento: Nord S 27.8
30 Agosto 2026 13:54 tempo osservato: Sereno Sereno 36 39 1012 vento: Nord S/SO 25.9
30 Agosto 2026 12:54 tempo osservato: Sereno Sereno 34 41 1012 vento: Nord S/SO 25.9
30 Agosto 2026 11:54 tempo osservato: Sereno Sereno 32 43 1013 vento: Nord S 27.8
30 Agosto 2026 10:54 tempo osservato: Sereno Sereno 31 45 1013 vento: Nord S/SO 27.8
30 Agosto 2026 09:54 tempo osservato: Sereno Sereno 29 51 1012 vento: Nord S/SO 22.2
30 Agosto 2026 08:54 tempo osservato: Sereno Sereno 28 51 1013 vento: Nord S/SO 29.6
30 Agosto 2026 07:54 tempo osservato: Sereno Sereno 27 50 1013 vento: Nord S/SO 24
30 Agosto 2026 06:54 tempo osservato: Sereno Sereno 27 50 1013 vento: Nord S/SO 18.5
30 Agosto 2026 05:54 tempo osservato: Sereno Sereno 27 50 1013 vento: Nord S/SO 24
30 Agosto 2026 04:54 tempo osservato: Sereno Sereno 27 50 1012 vento: Nord S 25.9
30 Agosto 2026 03:54 tempo osservato: Sereno Sereno 27 50 1012 vento: Nord S 20.3
30 Agosto 2026 02:54 tempo osservato: Sereno Sereno 27 50 1012 vento: Nord S 20.3
30 Agosto 2026 01:54 tempo osservato: Sereno Sereno 28 48 1012 vento: Nord S 16.7